Cheyenne, WY

12:01 AM MST on March 01, 2015 (GMT -0700)
Cheyenne | Change Station
CLOSE
Current Station
Personal Weather Station
Location: Cheyenne, WY
Elevation: 6138 ft
Nearby Weather Stations

Elev 6138 ft 41.15 °N, 104.82 °W | Updated 1 minute ago

Light Snow
Light Snow
15.8 °F
Feels Like 16 °F
N
0.0
Wind Variable Wind from South
Gusts 0.0 mph

Today
High -- | Low -- °F
--% Chance of Precip.
Yesterday
High -- | Low -- °F
Precip. -- in
6:33 AM 5:50 PM
Waxing Gibbous, 83% visible
Pressure 30.13 in
Visibility 4.0 miles
Clouds Mostly Cloudy 1700 ft
Overcast 2100 ft
Windchill 16 °F
Dew Point 12 °F
Humidity 83%
Rainfall 0.00 in
Snow Depth Not available.
UV 0 out of 12
Pollen .50 out of 12
Air Quality Not available.
Flu Activity Not available.
METAR KFEW 010656Z AUTO 21002KT 4SM -SN BKN017 OVC021 M09/M10 A2992 RMK AO2 CIG 017V022 SLP201 T10921105 410651235 $

More Conditions Fewer Conditions

Pressure 30.13 in
Visibility 4.0 miles
Clouds Mostly Cloudy 1700 ft
Overcast 2100 ft
Windchill 16 °F
Dew Point 12 °F
Humidity 83%
Rainfall 0.00 in
Snow Depth Not available.
UV 0 out of 12
Pollen .50 out of 12
Air Quality Not available.
Flu Activity Not available.
METAR KFEW 010656Z AUTO 21002KT 4SM -SN BKN017 OVC021 M09/M10 A2992 RMK AO2 CIG 017V022 SLP201 T10921105 410651235 $

More Conditions Fewer Conditions

10-Day Weather Forecast

Almanac

Astronomy

Mar. 01, 2015 Rise Set
Actual Time
Civil Twilight
Nautical Twilight
Astronomical Twilight
Moon
Length of Visible Light
Length of Day
Tomorrow will be .
, % of the Moon is Illuminated

Today's Extremes

State Highs State Lows

Community

WunderPhotos

Upload Photos

1,801,347 photos uploaded!

WunderBlogs® & News

Nearby

Air Quality

  Air Quality AQ Index Pollutant
Not available.

Snow Depth

Station Depth Elevation

Earthquake Activity

City Distance Mag. Time & Date
Minimum magnitude displayed is 2.5.

Coastal Water Temperatures

Place Temperature

Nearby Weather Stations